Theta_e
315 313 313 314 315 315 312 311 311 313 313 313 313 312 309 307 309 312 314 314 314 314 311 309 311 313 312 312 312 311 310 309 308 308 307 307 308 314 317 320 323 324 324
316 315 314 315 314 312 311 312 313 313 311 310 308 307 305 303 302 302 303 306 310 312 313 312 310 309 313 312 311 311 311 310 309 308 307 307 306 307 311 318 321 322 325
318 318 317 316 315 314 313 313 312 309 308 307 306 306 304 303 302 302 301 301 301 301 302 304 306 308 312 313 312 311 311 311 311 310 309 308 307 306 307 308 318 322 322
319 318 317 315 313 312 311 309 308 307 307 306 306 305 305 304 303 302 301 301 302 302 302 301 303 306 308 310 312 312 311 311 311 311 310 310 308 306 306 306 309 319 322
317 315 314 313 314 310 309 308 308 307 306 305 305 303 301 299 298 298 300 304 304 304 304 305 304 303 304 306 310 312 311 311 311 313 312 311 310 310 308 306 306 311 320
314 314 314 311 310 309 308 308 307 307 305 302 299 296 295 295 296 300 300 299 300 301 301 301 302 303 304 305 307 309 312 313 311 311 313 314 311 310 309 309 307 305 311
313 312 311 309 310 309 308 307 305 300 297 295 294 294 294 297 296 295 298 300 296 296 298 297 297 298 298 300 303 305 308 310 312 312 311 313 314 312 310 309 308 307 305
312 311 310 309 308 308 307 300 295 294 293 293 294 294 296 295 297 298 295 295 296 294 295 294 294 295 294 295 296 298 301 305 309 311 311 311 312 314 312 310 309 308 304
311 309 307 306 303 301 298 296 294 293 293 293 294 296 297 297 296 295 294 294 295 294 294 294 294 294 294 295 295 296 296 298 303 308 310 310 311 313 313 312 309 308 307
308 305 301 299 299 298 297 294 292 292 293 294 295 297 296 296 295 294 294 294 293 294 294 293 294 294 294 294 295 295 296 296 297 301 305 310 310 310 312 311 310 308 308
303 302 300 300 299 299 294 292 292 292 292 293 293 292 292 292 292 293 292 292 292 292 293 292 294 294 294 293 295 295 295 296 297 297 299 303 307 309 309 308 311 308 307
300 301 300 300 299 299 294 292 291 291 290 290 290 290 290 291 291 291 291 291 292 293 291 292 293 294 293 292 293 294 294 294 295 296 297 299 302 305 309 309 310 309 308
300 300 300 300 299 296 294 296 292 291 290 289 289 288 289 289 289 289 290 288 287 289 289 290 291 292 293 291 291 292 293 294 294 294 295 296 299 302 306 308 309 307 306
301 300 300 299 299 297 296 294 291 290 289 288 287 288 288 288 288 288 288 286 286 287 287 288 288 290 290 290 291 290 291 292 293 293 293 293 296 300 302 304 303 302 300
300 300 299 298 297 297 294 292 291 290 289 288 287 287 287 287 287 287 287 286 285 285 285 286 286 287 287 288 288 290 290 290 291 291 291 291 291 296 298 301 302 302 302
299 298 296 296 296 295 293 292 290 289 288 288 287 287 287 287 287 287 287 286 285 284 283 284 285 285 285 286 287 288 287 287 289 290 290 290 290 292 296 299 299 300 301
293 293 296 296 296 294 292 291 289 289 288 288 288 288 287 287 287 287 285 284 283 282 282 283 283 284 284 285 288 288 288 287 287 288 290 289 290 290 291 296 298 298 301
292 293 295 294 294 294 290 290 289 288 288 288 288 288 287 287 286 284 283 283 282 282 281 281 282 283 283 284 287 288 287 287 287 287 287 288 289 289 289 293 296 297 297
291 293 294 293 294 291 290 289 289 288 288 288 287 287 286 284 283 283 282 282 281 281 280 282 282 282 283 284 285 286 286 286 286 286 286 286 286 288 289 291 294 294 296
291 292 293 293 293 290 289 289 288 288 288 287 286 284 283 282 282 281 281 281 280 280 280 280 281 282 284 283 285 286 286 286 286 285 285 285 286 287 289 290 292 293 294
292 293 292 292 290 289 289 288 288 288 286 285 283 282 281 280 280 280 280 280 280 279 280 280 280 281 282 282 284 285 285 285 285 285 284 284 286 289 289 290 290 291 292
291 291 292 290 289 289 289 288 287 286 284 283 281 281 280 280 279 279 279 279 279 280 280 281 280 281 281 281 282 283 284 284 284 284 284 284 284 288 289 291 291 290 291
291 290 290 290 289 288 288 287 286 284 282 281 281 280 279 279 279 279 279 279 280 280 280 280 281 281 281 282 281 282 282 283 283 283 283 283 283 285 288 288 290 291 291
290 290 289 289 288 288 287 286 284 282 281 281 280 279 279 279 279 279 280 280 280 280 280 280 280 280 280 281 282 282 282 282 282 283 283 283 283 284 284 287 289 288 289
290 289 289 288 287 287 285 284 282 281 281 281 280 279 278 278 278 279 279 279 279 280 280 280 280 280 280 280 281 282 282 282 282 282 283 283 283 283 284 284 285 286 289
289 289 288 287 287 285 284 282 281 280 280 280 279 279 278 278 278 278 278 278 279 279 279 280 280 280 280 280 280 281 282 282 283 282 282 282 282 282 282 283 284 285 285
Wind_Speed
4 4 4 6 8 7 8 10 14 21 27 30 29 30 26 21 19 18 18 18 20 20 21 22 23 22 22 21 21 20 19 18 18 18 18 18 19 20 22 22 25 25 25
5 6 7 8 8 10 13 16 21 27 31 32 29 26 23 21 20 19 20 21 23 24 25 26 26 26 27 25 24 23 22 23 21 19 17 17 18 20 21 22 23 26 26
8 8 8 8 12 16 18 22 27 29 31 31 28 27 25 23 23 23 22 21 21 22 24 26 26 30 30 29 29 27 27 25 24 22 20 19 19 19 21 22 22 25 28
10 10 11 13 15 21 25 28 32 33 33 34 32 29 30 30 28 26 24 22 21 20 21 24 26 27 28 33 33 32 31 30 28 27 24 20 18 18 17 20 23 23 28
10 13 15 22 26 25 27 30 32 35 36 34 32 30 27 24 24 23 19 17 16 16 17 19 21 24 26 29 31 35 36 34 32 28 29 26 22 19 18 18 20 24 24
14 17 23 22 22 25 27 31 34 35 34 33 30 27 26 23 20 15 19 22 23 23 21 21 22 25 27 29 29 29 34 36 37 36 29 29 28 24 21 19 20 21 25
17 20 22 21 26 28 29 33 36 32 28 28 30 30 27 11 18 24 16 19 28 28 29 31 32 32 31 31 32 31 29 31 37 40 38 30 29 30 28 24 21 20 22
22 23 22 25 28 32 34 29 26 27 25 24 24 26 10 22 11 11 26 23 27 31 29 33 35 35 35 34 32 34 37 33 30 34 40 40 33 29 30 29 26 22 21
21 19 23 29 31 26 24 26 26 23 23 22 21 18 10 8 26 21 27 27 24 33 34 32 31 28 27 27 27 29 31 37 36 31 32 36 38 35 30 30 29 27 24
20 24 26 24 23 24 25 24 23 22 20 19 17 12 15 19 21 23 16 25 26 28 33 32 30 24 19 19 20 23 26 29 35 35 31 31 33 37 35 32 31 30 27
22 23 22 23 23 23 24 22 20 18 17 18 19 22 23 21 18 16 27 27 32 29 31 28 26 21 13 14 16 17 20 23 28 31 34 32 28 32 32 30 26 32 29
21 24 24 27 26 25 23 21 21 19 18 18 19 19 19 20 23 22 24 24 23 24 21 17 20 16 13 14 15 15 17 19 20 23 28 30 29 24 22 28 29 31 29
22 23 24 21 19 22 23 29 20 21 20 19 19 21 20 21 21 23 23 22 20 31 29 22 17 18 13 9 12 13 14 14 16 18 19 21 22 25 23 24 29 28 29
24 24 23 21 24 30 30 20 16 18 18 18 18 18 20 20 20 20 22 24 29 24 35 29 26 15 18 20 12 12 12 13 15 17 18 17 18 20 23 27 25 22 20
24 24 24 27 29 32 20 16 16 17 16 16 18 18 18 19 20 22 25 27 26 26 34 34 32 31 29 24 21 22 19 17 15 18 20 20 19 17 23 22 24 29 29
21 24 28 29 29 25 16 16 18 15 17 20 20 21 23 23 25 28 31 32 31 31 35 35 38 34 30 26 25 25 26 25 22 19 20 21 20 17 21 23 16 20 26
22 26 28 26 27 24 17 17 15 18 22 23 23 27 28 29 33 36 34 33 29 27 33 39 37 37 34 25 22 24 25 27 25 25 24 21 20 19 19 24 25 17 21
26 23 24 24 29 25 14 18 13 20 23 23 27 31 31 33 36 34 31 31 31 28 28 32 33 33 32 23 22 25 27 26 24 22 25 26 23 19 18 19 19 29 18
26 22 20 26 21 10 14 12 18 20 22 26 31 32 35 35 35 33 32 32 31 30 26 25 32 30 29 25 27 25 25 25 24 24 24 23 24 22 17 18 12 17 20
22 19 22 23 15 13 12 18 18 20 27 30 32 33 34 34 32 32 30 31 30 28 28 29 27 28 24 23 22 25 25 23 24 22 23 23 21 20 17 15 20 11 15
20 18 20 18 11 14 17 14 19 25 29 32 33 34 33 31 26 26 27 28 31 30 27 26 28 26 27 21 20 21 22 20 21 20 18 16 19 12 17 18 17 17 14
20 18 16 10 12 13 15 19 22 28 30 30 32 33 32 28 25 22 24 23 23 24 25 25 27 29 27 26 25 21 18 19 20 18 16 14 15 20 12 15 18 19 18
12 6 10 13 11 14 19 22 27 28 28 29 31 27 24 23 21 19 17 20 22 23 22 23 24 21 22 23 23 26 24 18 20 19 19 22 17 20 22 16 15 20 22
12 13 13 9 14 17 22 25 26 25 27 27 25 22 22 21 18 19 26 24 24 24 22 21 21 22 22 21 19 23 24 24 25 24 20 24 20 16 19 24 22 19 17
15 13 10 12 16 21 23 23 23 24 25 24 22 20 20 20 18 22 23 23 23 19 17 17 20 21 21 23 23 17 18 19 22 20 15 16 18 15 14 18 22 23 25
13 12 12 15 20 21 20 20 21 23 24 24 23 21 20 18 19 20 21 22 21 22 22 19 18 17 17 19 21 24 24 23 17 18 18 19 18 18 15 16 16 21 24
Wind_Direction
296 286 289 299 293 304 318 331 333 332 330 332 328 322 322 318 307 298 292 286 283 280 279 281 280 279 281 289 298 304 304 302 301 292 283 279 275 269 262 258 249 248 238
257 261 261 268 289 306 314 317 320 324 326 329 328 323 322 321 314 305 295 287 283 281 279 277 278 277 273 271 275 283 292 298 302 300 292 285 278 272 267 259 253 245 241
254 257 261 284 304 308 311 316 321 323 324 322 318 315 314 311 308 305 302 298 289 284 283 280 276 270 273 272 267 267 274 280 290 296 294 291 283 275 268 263 256 248 243
264 271 294 305 310 317 322 325 325 323 319 313 311 308 309 309 307 305 304 302 298 290 282 278 277 274 270 265 268 266 262 268 276 281 287 288 287 280 280 269 262 255 244
299 307 323 316 317 318 326 328 328 325 319 313 312 311 310 308 306 303 302 301 299 296 290 284 280 277 276 271 265 264 265 259 261 268 277 278 282 284 283 280 271 259 253
301 315 301 298 310 321 322 325 325 321 315 313 315 315 315 314 301 294 296 294 294 297 297 293 289 282 276 274 273 268 262 262 255 259 261 274 274 272 277 278 273 268 258
291 300 304 306 312 316 318 323 318 314 315 314 316 314 320 305 299 301 286 296 300 298 297 301 299 296 289 279 275 275 270 261 260 255 253 256 267 270 266 269 273 272 263
308 309 308 315 318 316 314 318 318 319 320 322 325 329 325 310 300 278 294 303 302 304 305 306 305 301 299 294 286 274 272 270 262 259 254 253 252 257 266 264 267 271 266
306 312 320 318 319 324 324 322 321 320 323 322 323 325 321 298 308 309 300 308 306 308 308 309 304 302 298 294 289 282 273 265 266 263 259 253 249 251 254 262 262 265 269
324 328 331 330 331 331 331 331 328 324 321 321 324 307 297 297 308 309 303 301 311 308 305 306 304 303 296 289 279 277 278 273 265 262 262 259 255 251 249 257 261 259 263
318 324 335 326 326 326 328 329 329 331 332 328 325 321 318 317 318 308 311 316 316 312 307 307 302 311 284 285 270 270 275 277 275 270 263 261 260 254 248 252 250 258 257
332 326 327 328 323 316 317 325 324 326 327 326 326 322 319 316 315 315 312 319 316 320 329 318 306 293 286 290 287 281 280 283 289 287 276 264 259 257 247 238 242 255 257
327 324 314 301 301 308 311 316 319 328 331 329 326 320 313 310 311 313 313 319 328 314 315 319 324 306 283 309 305 307 288 289 293 298 296 281 265 248 244 236 240 248 252
324 316 304 297 300 314 316 312 318 321 320 321 320 312 309 307 309 310 315 320 318 310 309 303 306 302 304 304 298 311 305 299 294 299 308 319 281 262 252 252 251 246 239
311 307 305 305 308 306 310 302 303 313 309 313 319 316 313 312 307 304 305 307 312 304 299 299 296 295 290 291 292 291 290 298 297 294 299 307 323 285 265 255 254 254 252
310 307 310 300 294 306 292 291 301 307 312 321 321 319 311 302 302 305 303 299 299 294 290 290 290 291 288 281 279 276 282 287 281 288 292 295 302 314 278 248 228 235 244
313 307 301 280 287 303 282 293 292 303 316 316 317 316 309 303 303 305 303 302 301 297 291 291 287 284 283 278 267 266 275 281 279 274 280 286 295 305 300 259 235 208 215
322 307 302 297 302 307 280 289 297 308 307 309 310 306 302 303 304 304 303 301 300 299 296 292 292 288 283 276 256 262 272 273 276 277 275 279 282 290 303 281 247 228 198
318 308 296 297 300 283 288 295 312 299 301 304 305 305 305 305 305 303 301 300 301 302 300 291 288 289 287 282 267 263 267 270 274 275 273 278 281 276 277 281 260 231 228
314 304 298 298 283 276 288 307 298 298 303 303 305 305 304 304 302 303 303 303 300 301 296 293 298 287 290 287 279 262 260 267 271 272 275 269 268 267 257 260 267 256 234
311 305 310 305 275 287 303 298 301 304 306 309 309 307 306 305 301 297 296 295 294 298 296 292 289 290 288 293 287 281 266 266 269 273 278 275 244 240 240 231 245 253 258
310 303 285 286 297 300 307 303 307 314 314 313 313 313 312 312 310 305 300 300 293 290 289 291 287 286 288 284 278 285 266 260 272 270 278 276 250 231 209 209 213 224 242
325 313 305 303 302 300 305 314 318 316 319 321 321 321 322 322 318 319 327 325 316 303 296 291 289 288 292 286 278 276 279 274 269 274 279 277 264 241 234 208 204 204 209
306 309 307 299 296 306 316 317 316 321 326 327 328 327 327 327 333 330 325 315 311 306 308 284 287 293 290 286 293 269 269 270 266 265 268 269 267 256 238 237 229 217 208
295 305 285 286 302 312 314 316 321 329 332 334 332 332 330 324 333 326 322 323 324 321 324 300 289 288 287 276 273 276 262 265 264 264 266 264 267 274 258 239 235 237 224
300 292 282 298 308 313 315 323 330 333 335 339 340 336 333 328 332 326 322 321 327 320 318 321 309 301 290 282 271 261 259 255 254 257 273 266 279 276 282 267 248 236 232